W5CWT-13 Weather Reports


Display with metric or nautical units.
time (UTC)temp
F
wind
direction
speed
MPH
gust
MPH
rain 1hr
in
rain 24hr
in
rain mn
in
humidity
%
barometer
mb
20180821062019 81 0.0 0.0 0.00 0.00 0.00 65 1018.6
20180821061529 81 112 0.0 1.0 0.00 0.00 0.00 65 1018.6
20180821061022 81 50 0.0 2.0 0.00 0.00 0.00 64 1018.6
20180821060526 81 96 2.0 3.0 0.00 0.00 0.00 64 1018.6
20180821060034 81 73 2.0 3.0 0.00 0.00 0.00 64 1018.6
20180821055518 81 80 3.0 4.0 0.00 0.00 0.00 64 1018.6
20180821055023 81 82 3.0 4.0 0.00 0.00 0.00 63 1018.5
20180821054521 82 78 2.0 4.0 0.00 0.00 0.00 63 1018.5
20180821054021 82 159 0.0 2.0 0.00 0.00 0.00 62 1018.4
20180821053518 82 88 1.0 3.0 0.00 0.00 0.00 62 1018.3
20180821053018 82 97 2.0 3.0 0.00 0.00 0.00 61 1018.3
20180821052516 82 51 3.0 3.0 0.00 0.00 0.00 61 1018.3
20180821052016 82 75 4.0 5.0 0.00 0.00 0.00 61 1018.3
20180821051532 82 64 3.0 4.0 0.00 0.00 0.00 61 1018.3
20180821051026 83 53 3.0 4.0 0.00 0.00 0.00 61 1018.3
20180821050517 83 65 3.0 5.0 0.00 0.00 0.00 61 1018.2
20180821050028 83 67 3.0 4.0 0.00 0.00 0.00 61 1018.1
20180821045521 83 70 3.0 4.0 0.00 0.00 0.00 61 1018.1
20180821045031 83 22 2.0 3.0 0.00 0.00 0.00 60 1018.0
20180821044524 84 44 2.0 3.0 0.00 0.00 0.00 60 1018.0
20180821044018 84 39 2.0 4.0 0.00 0.00 0.00 60 1017.9
20180821043527 84 3 2.0 3.0 0.00 0.00 0.00 60 1017.8
20180821043020 84 38 2.0 4.0 0.00 0.00 0.00 60 1017.8
20180821042530 84 33 1.0 2.0 0.00 0.00 0.00 59 1017.6
20180821042024 84 325 2.0 3.0 0.00 0.00 0.00 59 1017.6
20180821041516 84 38 2.0 3.0 0.00 0.00 0.00 59 1017.5
20180821041027 84 37 1.0 2.0 0.00 0.00 0.00 59 1017.5
20180821040519 85 358 2.0 3.0 0.00 0.00 0.00 59 1017.4
20180821040030 85 341 2.0 3.0 0.00 0.00 0.00 59 1017.3
20180821035522 85 344 2.0 4.0 0.00 0.00 0.00 59 1017.3
20180821035033 85 327 2.0 3.0 0.00 0.00 0.00 59 1017.0
20180821034525 85 312 2.0 4.0 0.00 0.00 0.00 59 1017.0
20180821034019 85 287 2.0 5.0 0.00 0.00 0.00 58 1016.9
20180821033529 86 291 3.0 6.0 0.00 0.00 0.00 58 1016.9
20180821033023 86 281 2.0 3.0 0.00 0.00 0.00 58 1016.9
20180821032533 86 298 2.0 3.0 0.00 0.00 0.00 58 1016.7
20180821032026 86 297 2.0 3.0 0.00 0.00 0.00 58 1016.7
20180821031518 86 302 3.0 6.0 0.00 0.00 0.00 58 1016.6
20180821031030 86 303 3.0 4.0 0.00 0.00 0.00 58 1016.6
20180821030522 86 272 3.0 5.0 0.00 0.00 0.00 58 1016.5
20180821030033 87 287 3.0 4.0 0.00 0.00 0.00 58 1016.4
20180821025525 87 288 3.0 4.0 0.00 0.00 0.00 59 1016.4
20180821025017 87 285 2.0 3.0 0.00 0.00 0.00 59 1016.1
20180821024528 87 267 2.0 3.0 0.00 0.00 0.00 59 1016.1
20180821024021 87 295 2.0 4.0 0.00 0.00 0.00 59 1016.0
20180821023531 87 274 3.0 4.0 0.00 0.00 0.00 59 1015.9
20180821023023 87 286 2.0 4.0 0.00 0.00 0.00 59 1015.9
20180821022517 88 274 2.0 4.0 0.00 0.00 0.00 59 1015.7
20180821022027 88 252 2.0 4.0 0.00 0.00 0.00 59 1015.7
20180821021526 88 285 2.0 2.0 0.00 0.00 0.00 58 1015.7
20180821021025 89 268 2.0 2.0 0.00 0.00 0.00 58 1015.7
20180821020524 89 258 3.0 4.0 0.00 0.00 0.00 58 1015.7
20180821020023 89 275 2.0 3.0 0.00 0.00 0.00 58 1015.6
20180821015522 89 275 3.0 4.0 0.00 0.00 0.00 58 1015.6
20180821015020 89 272 3.0 6.0 0.00 0.00 0.00 58 1015.5
20180821014519 90 283 2.0 3.0 0.00 0.00 0.00 57 1015.4
20180821014017 90 255 2.0 3.0 0.00 0.00 0.00 57 1015.4
20180821013516 90 287 3.0 4.0 0.00 0.00 0.00 56 1015.2
20180821013027 90 276 2.0 4.0 0.00 0.00 0.00 56 1015.2
20180821012519 91 257 2.0 3.0 0.00 0.00 0.00 55 1015.1
20180821012030 91 287 3.0 5.0 0.00 0.00 0.00 55 1015.1
20180821011519 91 275 3.0 5.0 0.00 0.00 0.00 54 1015.0
20180821011017 92 270 3.0 5.0 0.00 0.00 0.00 54 1014.9
20180821010527 92 269 3.0 4.0 0.00 0.00 0.00 54 1014.9
20180821010019 92 253 3.0 4.0 0.00 0.00 0.00 53 1014.9
20180821005530 93 278 3.0 5.0 0.00 0.00 0.00 52 1014.9
20180821005023 93 277 3.0 4.0 0.00 0.00 0.00 52 1014.9
20180821004515 93 270 3.0 5.0 0.00 0.00 0.00 52 1014.9
20180821004026 94 281 4.0 6.0 0.00 0.00 0.00 51 1014.8
20180821003518 94 271 5.0 6.0 0.00 0.00 0.00 51 1014.5
20180821003030 94 267 4.0 7.0 0.00 0.00 0.00 51 1014.5
20180821002522 94 273 4.0 7.0 0.00 0.00 0.00 51 1014.5
20180821002016 95 257 4.0 8.0 0.00 0.00 0.00 51 1014.5
20180821001528 95 251 2.0 4.0 0.00 0.00 0.00 50 1014.5
20180821001019 96 231 2.0 4.0 0.00 0.00 0.00 49 1014.4
20180821000529 96 236 3.0 4.0 0.00 0.00 0.00 48 1014.3
20180821000023 96 264 3.0 5.0 0.00 0.00 0.00 47 1014.2
20180820235515 96 268 4.0 7.0 0.00 0.00 0.00 47 1014.2
20180820235027 96 265 5.0 8.0 0.00 0.00 0.00 46 1014.2
20180820234519 97 289 5.0 7.0 0.00 0.00 0.00 45 1014.2
20180820234029 98 264 4.0 6.0 0.00 0.00 0.00 45 1014.2
20180820233517 98 276 5.0 7.0 0.00 0.00 0.00 45 1014.2
20180820233027 98 286 6.0 9.0 0.00 0.00 0.00 44 1014.2
20180820232521 99 288 5.0 8.0 0.00 0.00 0.00 44 1013.9
20180820232031 99 275 6.0 8.0 0.00 0.00 0.00 45 1013.9
20180820231524 98 269 6.0 9.0 0.00 0.00 0.00 47 1013.9
20180820231017 99 263 6.0 11.0 0.00 0.00 0.00 46 1013.8
20180820230527 99 228 5.0 9.0 0.00 0.00 0.00 46 1013.9
20180820230020 99 225 5.0 9.0 0.00 0.00 0.00 46 1013.9
20180820225530 99 224 5.0 11.0 0.00 0.00 0.00 47 1013.9
20180820225023 99 248 5.0 11.0 0.00 0.00 0.00 46 1013.9
20180820224516 99 274 6.0 10.0 0.00 0.00 0.00 45 1013.9
20180820224026 98 263 6.0 11.0 0.00 0.00 0.00 47 1013.9
20180820223519 98 270 7.0 11.0 0.00 0.00 0.00 47 1013.9
20180820223029 99 241 5.0 8.0 0.00 0.00 0.00 46 1013.9
20180820222522 99 258 6.0 11.0 0.00 0.00 0.00 46 1013.8
20180820222026 97 236 5.0 10.0 0.00 0.00 0.00 49 1013.8
20180820221525 98 292 6.0 11.0 0.00 0.00 0.00 47 1013.9
20180820221024 98 239 6.0 10.0 0.00 0.00 0.00 48 1013.9
20180820220523 98 242 6.0 8.0 0.00 0.00 0.00 49 1014.0
20180820220015 98 266 5.0 10.0 0.00 0.00 0.00 50 1014.2
20180820215520 98 208 6.0 11.0 0.00 0.00 0.00 49 1014.2
20180820215018 98 235 6.0 8.0 0.00 0.00 0.00 50 1014.3
20180820214518 98 213 5.0 8.0 0.00 0.00 0.00 50 1014.4
20180820214016 98 188 5.0 9.0 0.00 0.00 0.00 50 1014.4
20180820213516 98 217 4.0 9.0 0.00 0.00 0.00 50 1014.4
20180820213031 98 273 5.0 8.0 0.00 0.00 0.00 50 1014.4
20180820212519 99 279 7.0 12.0 0.00 0.00 0.00 48 1014.5
20180820212030 98 234 5.0 9.0 0.00 0.00 0.00 48 1014.5
20180820211522 99 275 6.0 10.0 0.00 0.00 0.00 48 1014.6
20180820211032 99 281 7.0 11.0 0.00 0.00 0.00 48 1014.7
20180820210525 98 273 5.0 10.0 0.00 0.00 0.00 51 1014.7
20180820210017 98 209 6.0 11.0 0.00 0.00 0.00 51 1014.9
20180820205528 98 284 4.0 9.0 0.00 0.00 0.00 50 1014.9
20180820205021 97 208 7.0 10.0 0.00 0.00 0.00 50 1014.9
20180820204532 98 229 5.0 12.0 0.00 0.00 0.00 49 1014.9
20180820204025 98 198 6.0 9.0 0.00 0.00 0.00 49 1014.9
20180820203517 98 246 6.0 12.0 0.00 0.00 0.00 49 1015.2
20180820203023 98 266 6.0 15.0 0.00 0.00 0.00 50 1015.2
20180820202515 98 216 5.0 7.0 0.00 0.00 0.00 50 1015.2
20180820202027 99 282 7.0 11.0 0.00 0.00 0.00 49 1015.2
20180820201519 97 238 4.0 9.0 0.00 0.00 0.00 50 1015.3
20180820201029 97 214 6.0 9.0 0.00 0.00 0.00 51 1015.4
20180820200522 97 262 5.0 9.0 0.00 0.00 0.00 50 1015.5
20180820200016 97 272 6.0 11.0 0.00 0.00 0.00 50 1015.6
20180820195526 97 284 5.0 6.0 0.00 0.00 0.00 51 1015.6
20180820195019 97 277 7.0 14.0 0.00 0.00 0.00 51 1015.7
20180820194530 97 244 6.0 10.0 0.00 0.00 0.00 52 1015.7
20180820194022 96 187 5.0 8.0 0.00 0.00 0.00 53 1015.8
20180820193532 95 252 5.0 9.0 0.00 0.00 0.00 54 1015.9
20180820193026 94 215 5.0 9.0 0.00 0.00 0.00 56 1015.9
20180820192518 96 294 6.0 11.0 0.00 0.00 0.00 53 1015.9
20180820192028 96 246 5.0 10.0 0.00 0.00 0.00 54 1015.9
20180820191521 95 225 6.0 10.0 0.00 0.00 0.00 54 1016.0
20180820191032 96 229 5.0 7.0 0.00 0.00 0.00 53 1016.1
20180820190525 97 259 4.0 9.0 0.00 0.00 0.00 53 1016.1
20180820190017 96 274 4.0 6.0 0.00 0.00 0.00 54 1016.2
20180820185528 95 211 5.0 6.0 0.00 0.00 0.00 55 1016.2
20180820185020 96 235 6.0 11.0 0.00 0.00 0.00 54 1016.2
20180820184531 95 230 4.0 8.0 0.00 0.00 0.00 57 1016.3
20180820184023 95 228 5.0 8.0 0.00 0.00 0.00 57 1016.3
20180820183516 94 225 5.0 9.0 0.00 0.00 0.00 57 1016.4
20180820183027 95 178 5.0 5.0 0.00 0.00 0.00 57 1016.4
20180820182519 95 259 5.0 11.0 0.00 0.00 0.00 57 1016.4
20180820182024 94 203 4.0 6.0 0.00 0.00 0.00 57 1016.4
20180820181523 94 212 5.0 9.0 0.00 0.00 0.00 57 1016.6
20180820181022 94 248 3.0 6.0 0.00 0.00 0.00 58 1016.8
20180820180520 94 204 5.0 11.0 0.00 0.00 0.00 58 1016.8
20180820180020 93 181 5.0 7.0 0.00 0.00 0.00 59 1016.8
20180820175518 93 224 5.0 11.0 0.00 0.00 0.00 59 1016.8
20180820175016 93 201 4.0 7.0 0.00 0.00 0.00 59 1016.9
20180820174521 94 232 3.0 6.0 0.00 0.00 0.00 60 1016.9
20180820174026 93 220 4.0 6.0 0.00 0.00 0.00 59 1016.9
20180820173519 94 274 5.0 8.0 0.00 0.00 0.00 60 1017.0
20180820173030 93 219 3.0 4.0 0.00 0.00 0.00 62 1017.0
20180820172522 93 267 3.0 6.0 0.00 0.00 0.00 62 1017.1
20180820172015 92 260 5.0 11.0 0.00 0.00 0.00 62 1017.1
20180820171526 92 271 3.0 6.0 0.00 0.00 0.00 62 1017.2
20180820171018 91 262 7.0 10.0 0.00 0.00 0.00 62 1017.2
20180820170529 91 249 5.0 7.0 0.00 0.00 0.00 63 1017.2
20180820170022 91 262 6.0 9.0 0.00 0.00 0.00 64 1017.3
20180820165532 91 203 5.0 9.0 0.00 0.00 0.00 65 1017.3
20180820165026 91 264 4.0 7.0 0.00 0.00 0.00 65 1017.4
20180820164518 90 223 4.0 5.0 0.00 0.00 0.00 66 1017.4
20180820164028 90 256 4.0 8.0 0.00 0.00 0.00 67 1017.4
20180820163521 90 170 4.0 9.0 0.00 0.00 0.00 67 1017.5
20180820163032 90 182 4.0 6.0 0.00 0.00 0.00 67 1017.5
20180820162525 89 195 6.0 9.0 0.00 0.00 0.00 68 1017.5
20180820162017 89 269 5.0 10.0 0.00 0.00 0.00 67 1017.5
20180820161527 90 218 5.0 8.0 0.00 0.00 0.00 67 1017.5
20180820161020 89 264 3.0 5.0 0.00 0.00 0.00 69 1017.6
20180820160531 89 228 3.0 6.0 0.00 0.00 0.00 69 1017.6
20180820160024 88 176 4.0 7.0 0.00 0.00 0.00 70 1017.6
20180820155516 88 292 4.0 7.0 0.00 0.00 0.00 70 1017.6
20180820155027 88 292 6.0 7.0 0.00 0.00 0.00 71 1017.4
20180820154519 88 247 7.0 10.0 0.00 0.00 0.00 70 1017.4
20180820154029 87 249 4.0 7.0 0.00 0.00 0.00 71 1017.4
20180820153523 87 249 7.0 14.0 0.00 0.00 0.00 71 1017.4
20180820153015 86 214 5.0 10.0 0.00 0.00 0.00 72 1017.4
20180820152527 86 247 5.0 9.0 0.00 0.00 0.00 73 1017.3
20180820152019 85 177 5.0 8.0 0.00 0.00 0.00 74 1017.3
20180820151530 85 240 6.0 9.0 0.00 0.00 0.00 74 1017.2
20180820151022 85 226 6.0 9.0 0.00 0.00 0.00 75 1017.2
20180820150533 85 232 6.0 10.0 0.00 0.00 0.00 75 1017.2
20180820150025 85 212 5.0 9.0 0.00 0.00 0.00 76 1017.2
20180820145519 85 247 5.0 8.0 0.00 0.00 0.00 76 1017.2
20180820145029 84 229 4.0 6.0 0.00 0.00 0.00 77 1017.1
20180820144521 84 202 4.0 7.0 0.00 0.00 0.00 77 1017.1
20180820144026 84 208 5.0 10.0 0.00 0.00 0.00 77 1017.1
20180820143524 84 176 5.0 6.0 0.00 0.00 0.00 78 1017.2
20180820143017 83 203 5.0 8.0 0.00 0.00 0.00 78 1017.2
20180820142521 83 212 6.0 10.0 0.00 0.00 0.00 78 1017.2
20180820142020 83 205 5.0 10.0 0.00 0.00 0.00 78 1017.2
20180820141518 83 226 4.0 8.0 0.00 0.00 0.00 79 1017.2
20180820141017 83 291 4.0 8.0 0.00 0.00 0.00 80 1017.3
20180820140532 82 187 6.0 11.0 0.00 0.00 0.00 80 1017.2
20180820140026 82 194 5.0 9.0 0.00 0.00 0.00 80 1017.1
20180820135518 82 218 4.0 6.0 0.00 0.00 0.00 81 1017.1
20180820135030 82 227 4.0 8.0 0.00 0.00 0.00 81 1017.1
20180820134522 82 189 4.0 7.0 0.00 0.00 0.00 82 1017.1
20180820134016 81 202 3.0 5.0 0.00 0.00 0.00 82 1017.0
20180820133526 81 198 6.0 8.0 0.00 0.00 0.00 82 1017.0
20180820133018 81 191 3.0 6.0 0.00 0.00 0.00 83 1017.0
20180820132529 81 237 3.0 7.0 0.00 0.00 0.00 83 1016.8
20180820132022 81 181 2.0 5.0 0.00 0.00 0.00 84 1016.8
20180820131532 81 216 3.0 6.0 0.00 0.00 0.00 84 1016.7
20180820131025 81 272 3.0 5.0 0.00 0.00 0.00 84 1016.7
20180820130517 81 208 3.0 6.0 0.00 0.00 0.00 84 1016.7
20180820130028 81 220 3.0 5.0 0.00 0.00 0.00 84 1016.6
20180820125527 80 214 2.0 3.0 0.00 0.00 0.00 84 1016.6
20180820125025 80 216 2.0 3.0 0.00 0.00 0.00 84 1016.5
20180820124518 80 198 2.0 4.0 0.00 0.00 0.00 84 1016.4
20180820124023 80 208 3.0 6.0 0.00 0.00 0.00 84 1016.4
20180820123521 80 222 3.0 4.0 0.00 0.00 0.00 84 1016.4
20180820123019 80 229 3.0 5.0 0.00 0.00 0.00 84 1016.4
20180820122519 80 181 2.0 4.0 0.00 0.00 0.00 84 1016.2
20180820122017 79 233 2.0 4.0 0.00 0.00 0.00 84 1016.2
20180820121515 79 243 3.0 5.0 0.00 0.00 0.00 84 1016.1
20180820121020 79 237 3.0 4.0 0.00 0.00 0.00 84 1016.1
20180820120531 79 223 1.0 3.0 0.00 0.00 0.00 84 1016.1
20180820120023 79 210 3.0 5.0 0.00 0.00 0.00 84 1016.1
20180820115515 79 182 2.0 4.0 0.00 0.00 0.00 84 1016.1
20180820115026 79 194 2.0 3.0 0.00 0.00 0.00 84 1015.9
20180820114519 79 220 2.0 5.0 0.00 0.00 0.00 84 1015.9
20180820114029 79 213 2.0 2.0 0.00 0.00 0.00 84 1015.8
20180820113522 79 210 2.0 4.0 0.00 0.00 0.00 84 1015.8
20180820113033 79 176 2.0 4.0 0.00 0.00 0.00 84 1015.8
20180820112525 79 235 2.0 2.0 0.00 0.00 0.00 84 1015.7
20180820112018 79 226 2.0 5.0 0.00 0.00 0.00 84 1015.7
20180820111531 79 193 2.0 2.0 0.00 0.00 0.00 84 1015.6
20180820111022 79 175 2.0 3.0 0.00 0.00 0.00 84 1015.6
20180820110533 79 199 1.0 3.0 0.00 0.00 0.00 83 1015.6
20180820110025 79 202 2.0 4.0 0.00 0.00 0.00 83 1015.6
20180820105519 79 183 2.0 3.0 0.00 0.00 0.00 83 1015.6
20180820105029 79 213 3.0 5.0 0.00 0.00 0.00 83 1015.5
20180820104522 79 172 2.0 3.0 0.00 0.00 0.00 83 1015.4
20180820104032 79 195 2.0 3.0 0.00 0.00 0.00 83 1015.4
20180820103526 79 188 2.0 4.0 0.00 0.00 0.00 83 1015.4
20180820103019 79 194 2.0 4.0 0.00 0.00 0.00 82 1015.4
20180820102528 79 191 2.0 5.0 0.00 0.00 0.00 82 1015.2
20180820102021 79 175 3.0 4.0 0.00 0.00 0.00 82 1015.2
20180820101533 80 217 3.0 5.0 0.00 0.00 0.00 82 1015.2
20180820101025 80 194 2.0 4.0 0.00 0.00 0.00 82 1015.2
20180820100518 80 193 3.0 4.0 0.00 0.00 0.00 82 1015.2
20180820100028 80 160 2.0 4.0 0.00 0.00 0.00 82 1015.1
20180820095521 80 193 3.0 4.0 0.00 0.00 0.00 82 1015.1
20180820095032 80 206 1.0 4.0 0.00 0.00 0.00 83 1015.1
20180820094524 80 212 2.0 4.0 0.00 0.00 0.00 83 1015.1
20180820094016 80 199 2.0 5.0 0.00 0.00 0.00 83 1015.0
20180820093527 80 184 2.0 3.0 0.00 0.00 0.00 83 1014.9
20180820093019 80 177 2.0 3.0 0.00 0.00 0.00 83 1014.9
20180820092530 80 176 2.0 5.0 0.00 0.00 0.00 83 1014.9
20180820092023 80 156 1.0 3.0 0.00 0.00 0.00 83 1014.9
20180820091026 80 168 2.0 2.0 0.00 0.00 0.00 83 1014.7
20180820090520 80 174 2.0 4.0 0.00 0.00 0.00 83 1014.7
20180820090023 80 177 2.0 3.0 0.00 0.00 0.00 83 1014.7
20180820085522 80 194 1.0 2.0 0.00 0.00 0.00 83 1014.7
20180820085021 81 188 1.0 2.0 0.00 0.00 0.00 83 1014.7
20180820084519 81 170 2.0 3.0 0.00 0.00 0.00 83 1014.7
20180820084019 81 187 2.0 4.0 0.00 0.00 0.00 83 1014.7
20180820083517 81 182 1.0 3.0 0.00 0.00 0.00 83 1014.7
20180820083017 81 186 2.0 3.0 0.00 0.00 0.00 83 1014.7
20180820082515 81 200 1.0 2.0 0.00 0.00 0.00 83 1014.7
20180820082027 81 177 1.0 3.0 0.00 0.00 0.00 83 1014.7
20180820081521 81 171 2.0 4.0 0.00 0.00 0.00 83 1014.7
20180820081030 81 160 1.0 4.0 0.00 0.00 0.00 82 1014.7
20180820080522 81 190 2.0 3.0 0.00 0.00 0.00 82 1014.6
20180820080016 82 195 1.0 2.0 0.00 0.00 0.00 82 1014.5
20180820075526 82 192 2.0 3.0 0.00 0.00 0.00 82 1014.5
20180820075018 82 189 1.0 2.0 0.00 0.00 0.00 82 1014.5
20180820074529 82 167 2.0 4.0 0.00 0.00 0.00 82 1014.5
20180820074016 82 182 2.0 4.0 0.00 0.00 0.00 82 1014.5
20180820073527 82 166 2.0 3.0 0.00 0.00 0.00 81 1014.5
20180820073021 82 173 2.0 3.0 0.00 0.00 0.00 81 1014.5
20180820072531 82 197 2.0 5.0 0.00 0.00 0.00 81 1014.4
20180820072025 82 178 2.0 4.0 0.00 0.00 0.00 81 1014.4
20180820071517 82 180 2.0 3.0 0.00 0.00 0.00 81 1014.4
20180820071028 83 179 2.0 3.0 0.00 0.00 0.00 81 1014.4
20180820070520 83 179 2.0 4.0 0.00 0.00 0.00 80 1014.4
20180820070031 83 202 2.0 4.0 0.00 0.00 0.00 80 1014.4
20180820065523 83 202 3.0 3.0 0.00 0.00 0.00 80 1014.4
20180820065017 83 176 3.0 5.0 0.00 0.00 0.00 80 1014.3
20180820064527 83 163 2.0 4.0 0.00 0.00 0.00 80 1014.2
20180820064020 83 196 3.0 4.0 0.00 0.00 0.00 79 1014.2
20180820063530 83 194 3.0 5.0 0.00 0.00 0.00 79 1014.2
20180820063024 83 192 3.0 5.0 0.00 0.00 0.00 79 1014.2
20180820062516 83 184 3.0 5.0 0.00 0.00 0.00 78 1014.2